| time (UTC) | temp C | wind direction | speed KPH | gust KPH | rain 1hr cm | rain 24hr cm | rain mn cm | humidity % | barometer mb |
| 20260505031501 | 11 | 196 | 0.0 | 1.6 | 0.00 | 0.00 | 0.00 | 80 | 1010.1 |
| 20260505031000 | 11 | 196 | 0.0 | 1.6 | 0.00 | 0.00 | 0.00 | 80 | 1010.2 |
| 20260505030600 | 11 | 187 | 0.0 | 1.6 | 0.00 | 0.00 | 0.00 | 80 | 1010.2 |
| 20260505030105 | 11 | 187 | 0.0 | 1.6 | 0.00 | 0.00 | 0.00 | 79 | 1010.2 |
| 20260505025600 | 11 | 193 | 0.0 | 3.2 | 0.00 | 0.00 | 0.00 | 79 | 1010.2 |
| 20260505025100 | 11 | 193 | 0.0 | 4.8 | 0.00 | 0.00 | 0.00 | 79 | 1010.2 |
| 20260505024601 | 12 | 192 | 0.0 | 6.4 | 0.00 | 0.00 | 0.00 | 79 | 1010.2 |
| 20260505024102 | 11 | 197 | 1.6 | 6.4 | 0.00 | 0.00 | 0.00 | 79 | 1010.2 |
| 20260505023559 | 12 | 216 | 0.0 | 0.0 | 0.00 | 0.00 | 0.00 | 78 | 1010.2 |
| 20260505023108 | 12 | 202 | 0.0 | 0.0 | 0.00 | 0.00 | 0.00 | 78 | 1010.2 |
| 20260505022559 | 12 | 229 | 0.0 | 0.0 | 0.00 | 0.00 | 0.00 | 78 | 1010.3 |
| 20260505022059 | 12 | 198 | 0.0 | 0.0 | 0.00 | 0.00 | 0.00 | 77 | 1010.3 |
| 20260505021601 | 12 | 202 | 0.0 | 1.6 | 0.00 | 0.00 | 0.00 | 77 | 1010.3 |
| 20260505021057 | 12 | 202 | 0.0 | 3.2 | 0.00 | 0.00 | 0.00 | 76 | 1010.4 |
| 20260505020558 | 12 | 204 | 0.0 | 4.8 | 0.00 | 0.00 | 0.00 | 76 | 1010.3 |
| 20260505015558 | 12 | 208 | 0.0 | 4.8 | 0.00 | 0.00 | 0.00 | 76 | 1010.4 |
| 20260505015157 | 12 | 199 | 0.0 | 4.8 | 0.00 | 0.00 | 0.00 | 76 | 1010.4 |
| 20260505014556 | 12 | 203 | 0.0 | 4.8 | 0.00 | 0.00 | 0.00 | 76 | 1010.3 |
| 20260505014055 | 12 | 197 | 0.0 | 0.0 | 0.00 | 0.00 | 0.00 | 75 | 1010.3 |
| 20260505013556 | 12 | 194 | 0.0 | 1.6 | 0.00 | 0.00 | 0.00 | 75 | 1010.3 |
| 20260505013056 | 12 | 176 | 0.0 | 1.6 | 0.00 | 0.00 | 0.00 | 75 | 1010.2 |
| 20260505012556 | 12 | 200 | 0.0 | 1.6 | 0.00 | 0.00 | 0.00 | 74 | 1010.2 |
| 20260505012058 | 12 | 197 | 0.0 | 3.2 | 0.00 | 0.00 | 0.00 | 74 | 1010.1 |
| 20260505011556 | 12 | 214 | 0.0 | 3.2 | 0.00 | 0.00 | 0.00 | 73 | 1010.0 |
| 20260505011057 | 13 | 192 | 0.0 | 3.2 | 0.00 | 0.00 | 0.00 | 73 | 1009.9 |
| 20260505010555 | 13 | 182 | 0.0 | 4.8 | 0.00 | 0.00 | 0.00 | 72 | 1009.9 |
| 20260505005554 | 13 | 213 | 0.0 | 4.8 | 0.00 | 0.00 | 0.00 | 71 | 1009.6 |
| 20260505005054 | 13 | 202 | 1.6 | 6.4 | 0.00 | 0.00 | 0.00 | 70 | 1009.4 |
| 20260505004554 | 13 | 185 | 1.6 | 6.4 | 0.00 | 0.00 | 0.00 | 70 | 1009.3 |
| 20260505004053 | 13 | 196 | 0.0 | 3.2 | 0.00 | 0.00 | 0.00 | 69 | 1009.2 |
| 20260505003557 | 13 | 202 | 0.0 | 4.8 | 0.00 | 0.00 | 0.00 | 69 | 1009.2 |
| 20260505003057 | 13 | 219 | 1.6 | 8.0 | 0.00 | 0.00 | 0.00 | 68 | 1009.1 |
| 20260505002555 | 13 | 185 | 1.6 | 8.0 | 0.00 | 0.00 | 0.00 | 68 | 1009.0 |
| 20260505002052 | 13 | 199 | 1.6 | 6.4 | 0.00 | 0.00 | 0.00 | 67 | 1008.9 |
| 20260505001553 | 14 | 204 | 1.6 | 4.8 | 0.00 | 0.00 | 0.00 | 67 | 1008.8 |
| 20260505001053 | 14 | 217 | 0.0 | 6.4 | 0.00 | 0.00 | 0.00 | 66 | 1008.8 |
| 20260505000552 | 14 | 184 | 0.0 | 12.9 | 0.00 | 0.00 | 0.00 | 65 | 1008.6 |
| 20260505000100 | 14 | 190 | 3.2 | 12.9 | 0.00 | 0.00 | 0.00 | 64 | 1008.6 |
| 20260504235551 | 15 | 189 | 0.0 | 6.4 | 0.00 | 0.00 | 0.00 | 63 | 1008.5 |
| 20260504235052 | 15 | 185 | 1.6 | 9.7 | 0.00 | 0.00 | 0.00 | 62 | 1008.3 |
| 20260504234551 | 15 | 228 | 1.6 | 9.7 | 0.00 | 0.00 | 0.00 | 60 | 1008.3 |
| 20260504234052 | 15 | 180 | 1.6 | 9.7 | 0.00 | 0.00 | 0.00 | 60 | 1008.3 |
| 20260504233550 | 15 | 209 | 1.6 | 9.7 | 0.00 | 0.00 | 0.00 | 59 | 1008.2 |
| 20260504233053 | 15 | 178 | 3.2 | 8.0 | 0.00 | 0.00 | 0.00 | 58 | 1008.2 |
| 20260504232550 | 16 | 177 | 1.6 | 11.3 | 0.00 | 0.00 | 0.00 | 56 | 1008.2 |
| 20260504232052 | 16 | 212 | 3.2 | 11.3 | 0.00 | 0.00 | 0.00 | 55 | 1008.1 |
| 20260504231549 | 16 | 199 | 3.2 | 11.3 | 0.00 | 0.00 | 0.00 | 55 | 1008.0 |
| 20260504231049 | 16 | 195 | 3.2 | 11.3 | 0.00 | 0.00 | 0.00 | 55 | 1008.0 |
| 20260504230551 | 16 | 177 | 1.6 | 16.1 | 0.00 | 0.00 | 0.00 | 55 | 1007.7 |
| 20260504230049 | 16 | 185 | 3.2 | 16.1 | 0.00 | 0.00 | 0.00 | 54 | 1007.7 |
| 20260504225548 | 17 | 214 | 3.2 | 11.3 | 0.00 | 0.00 | 0.00 | 53 | 1007.7 |
| 20260504225050 | 17 | 210 | 1.6 | 9.7 | 0.00 | 0.00 | 0.00 | 52 | 1007.7 |
| 20260504224549 | 17 | 180 | 4.8 | 9.7 | 0.00 | 0.00 | 0.00 | 51 | 1007.6 |
| 20260504224050 | 17 | 199 | 3.2 | 11.3 | 0.00 | 0.00 | 0.00 | 51 | 1007.6 |
| 20260504223548 | 17 | 181 | 3.2 | 16.1 | 0.00 | 0.00 | 0.00 | 51 | 1007.6 |
| 20260504223047 | 17 | 186 | 4.8 | 16.1 | 0.00 | 0.00 | 0.00 | 49 | 1007.6 |
| 20260504222547 | 18 | 181 | 4.8 | 11.3 | 0.00 | 0.00 | 0.00 | 48 | 1007.5 |
| 20260504222046 | 18 | 186 | 4.8 | 12.9 | 0.00 | 0.00 | 0.00 | 46 | 1007.4 |
| 20260504221546 | 18 | 169 | 4.8 | 14.5 | 0.00 | 0.00 | 0.00 | 47 | 1007.3 |
| 20260504221048 | 18 | 205 | 4.8 | 14.5 | 0.00 | 0.00 | 0.00 | 46 | 1007.3 |
| 20260504220546 | 18 | 214 | 4.8 | 14.5 | 0.00 | 0.00 | 0.00 | 46 | 1007.3 |
| 20260504220108 | 19 | 194 | 3.2 | 14.5 | 0.00 | 0.00 | 0.00 | 46 | 1007.3 |
| 20260504215546 | 19 | 192 | 3.2 | 14.5 | 0.00 | 0.00 | 0.00 | 46 | 1007.2 |
| 20260504215145 | 19 | 204 | 4.8 | 14.5 | 0.00 | 0.00 | 0.00 | 45 | 1007.2 |
| 20260504214552 | 19 | 205 | 6.4 | 12.9 | 0.00 | 0.00 | 0.00 | 45 | 1007.4 |
| 20260504214044 | 19 | 182 | 4.8 | 16.1 | 0.00 | 0.00 | 0.00 | 45 | 1007.3 |
| 20260504213545 | 19 | 209 | 4.8 | 16.1 | 0.00 | 0.00 | 0.00 | 45 | 1007.2 |
| 20260504213051 | 19 | 195 | 3.2 | 16.1 | 0.00 | 0.00 | 0.00 | 45 | 1007.2 |
| 20260504212544 | 19 | 197 | 4.8 | 16.1 | 0.00 | 0.00 | 0.00 | 46 | 1007.2 |
| 20260504212045 | 19 | 189 | 4.8 | 16.1 | 0.00 | 0.00 | 0.00 | 45 | 1007.3 |
| 20260504211544 | 19 | 202 | 4.8 | 16.1 | 0.00 | 0.00 | 0.00 | 44 | 1007.2 |
| 20260504211043 | 20 | 198 | 4.8 | 16.1 | 0.00 | 0.00 | 0.00 | 44 | 1007.2 |
| 20260504210543 | 20 | 203 | 4.8 | 14.5 | 0.00 | 0.00 | 0.00 | 45 | 1007.2 |
| 20260504210043 | 20 | 178 | 4.8 | 17.7 | 0.00 | 0.00 | 0.00 | 44 | 1007.2 |
| 20260504205543 | 20 | 211 | 4.8 | 17.7 | 0.00 | 0.00 | 0.00 | 43 | 1007.2 |
| 20260504205044 | 20 | 185 | 6.4 | 17.7 | 0.00 | 0.00 | 0.00 | 43 | 1007.2 |
| 20260504204543 | 21 | 171 | 3.2 | 11.3 | 0.00 | 0.00 | 0.00 | 43 | 1007.1 |
| 20260504204042 | 21 | 185 | 3.2 | 12.9 | 0.00 | 0.00 | 0.00 | 41 | 1007.1 |
| 20260504203542 | 21 | 193 | 3.2 | 12.9 | 0.00 | 0.00 | 0.00 | 41 | 1007.1 |
| 20260504203042 | 21 | 192 | 4.8 | 17.7 | 0.00 | 0.00 | 0.00 | 40 | 1007.0 |
| 20260504202542 | 21 | 189 | 6.4 | 17.7 | 0.00 | 0.00 | 0.00 | 41 | 1007.0 |
| 20260504202042 | 21 | 209 | 4.8 | 16.1 | 0.00 | 0.00 | 0.00 | 39 | 1007.1 |
| 20260504201541 | 21 | 229 | 3.2 | 12.9 | 0.00 | 0.00 | 0.00 | 40 | 1007.0 |
| 20260504201045 | 21 | 100 | 3.2 | 14.5 | 0.00 | 0.00 | 0.00 | 40 | 1006.9 |
| 20260504200541 | 21 | 166 | 4.8 | 14.5 | 0.00 | 0.00 | 0.00 | 39 | 1007.0 |
| 20260504200048 | 21 | 171 | 4.8 | 22.5 | 0.00 | 0.00 | 0.00 | 39 | 1007.0 |
| 20260504195540 | 21 | 169 | 6.4 | 22.5 | 0.00 | 0.00 | 0.00 | 38 | 1007.2 |
| 20260504195039 | 21 | 179 | 6.4 | 17.7 | 0.00 | 0.00 | 0.00 | 38 | 1007.1 |
| 20260504194542 | 21 | 157 | 6.4 | 16.1 | 0.00 | 0.00 | 0.00 | 39 | 1007.0 |
| 20260504194039 | 21 | 188 | 4.8 | 14.5 | 0.00 | 0.00 | 0.00 | 39 | 1007.0 |
| 20260504193539 | 21 | 193 | 6.4 | 16.1 | 0.00 | 0.00 | 0.00 | 38 | 1007.1 |
| 20260504193038 | 21 | 225 | 4.8 | 16.1 | 0.00 | 0.00 | 0.00 | 38 | 1007.0 |
| 20260504192537 | 21 | 209 | 8.0 | 14.5 | 0.00 | 0.00 | 0.00 | 37 | 1007.1 |
| 20260504192037 | 21 | 165 | 4.8 | 16.1 | 0.00 | 0.00 | 0.00 | 39 | 1007.1 |
| 20260504191550 | 21 | 167 | 6.4 | 16.1 | 0.00 | 0.00 | 0.00 | 36 | 1007.0 |
| 20260504191038 | 21 | 206 | 8.0 | 17.7 | 0.00 | 0.00 | 0.00 | 36 | 1007.1 |
| 20260504190539 | 21 | 169 | 6.4 | 22.5 | 0.00 | 0.00 | 0.00 | 36 | 1007.0 |
| 20260504190043 | 21 | 213 | 8.0 | 22.5 | 0.00 | 0.00 | 0.00 | 35 | 1007.2 |
| 20260504185535 | 22 | 161 | 4.8 | 14.5 | 0.00 | 0.00 | 0.00 | 35 | 1007.2 |
| 20260504185034 | 21 | 197 | 4.8 | 14.5 | 0.00 | 0.00 | 0.00 | 36 | 1007.3 |
| 20260504184545 | 22 | 164 | 6.4 | 14.5 | 0.00 | 0.00 | 0.00 | 36 | 1007.3 |
| 20260504184034 | 22 | 209 | 4.8 | 14.5 | 0.00 | 0.00 | 0.00 | 34 | 1007.3 |
| 20260504183533 | 22 | 272 | 4.8 | 16.1 | 0.00 | 0.00 | 0.00 | 33 | 1007.5 |
| 20260504183041 | 22 | 171 | 4.8 | 17.7 | 0.00 | 0.00 | 0.00 | 34 | 1007.4 |
| 20260504182533 | 21 | 154 | 6.4 | 17.7 | 0.00 | 0.00 | 0.00 | 32 | 1007.4 |
| 20260504182033 | 21 | 228 | 3.2 | 17.7 | 0.00 | 0.00 | 0.00 | 35 | 1007.6 |
| 20260504181531 | 21 | 189 | 6.4 | 16.1 | 0.00 | 0.00 | 0.00 | 33 | 1007.6 |
| 20260504181031 | 21 | 242 | 6.4 | 17.7 | 0.00 | 0.00 | 0.00 | 33 | 1007.7 |
| 20260504180532 | 21 | 332 | 8.0 | 17.7 | 0.00 | 0.00 | 0.00 | 34 | 1007.8 |
| 20260504180030 | 21 | 184 | 3.2 | 17.7 | 0.00 | 0.00 | 0.00 | 35 | 1007.8 |
| 20260504175529 | 21 | 195 | 8.0 | 20.9 | 0.00 | 0.00 | 0.00 | 32 | 1007.8 |
| 20260504175032 | 21 | 171 | 6.4 | 20.9 | 0.00 | 0.00 | 0.00 | 32 | 1007.7 |
| 20260504174530 | 21 | 180 | 3.2 | 16.1 | 0.00 | 0.00 | 0.00 | 34 | 1007.6 |
| 20260504174028 | 21 | 187 | 3.2 | 16.1 | 0.00 | 0.00 | 0.00 | 34 | 1007.8 |
| 20260504173527 | 21 | 179 | 6.4 | 17.7 | 0.00 | 0.00 | 0.00 | 35 | 1007.8 |
| 20260504173029 | 21 | 150 | 4.8 | 17.7 | 0.00 | 0.00 | 0.00 | 32 | 1007.7 |
| 20260504172526 | 21 | 3 | 4.8 | 19.3 | 0.00 | 0.00 | 0.00 | 33 | 1007.7 |
| 20260504172027 | 21 | 196 | 9.7 | 19.3 | 0.00 | 0.00 | 0.00 | 33 | 1007.8 |
| 20260504171525 | 21 | 221 | 4.8 | 12.9 | 0.00 | 0.00 | 0.00 | 34 | 1007.8 |
| 20260504171025 | 21 | 170 | 4.8 | 12.9 | 0.00 | 0.00 | 0.00 | 33 | 1007.9 |
| 20260504170525 | 21 | 197 | 6.4 | 17.7 | 0.00 | 0.00 | 0.00 | 34 | 1007.8 |
| 20260504151006 | 18 | 188 | 3.2 | 11.3 | 0.00 | 0.00 | 0.00 | 39 | 1009.1 |
| 20260504150509 | 18 | 218 | 1.6 | 17.7 | 0.00 | 0.00 | 0.00 | 42 | 1009.1 |
| 20260504141055 | 17 | 113 | 1.6 | 8.0 | 0.00 | 0.00 | 0.00 | 43 | 1009.9 |
| 20260504140555 | 17 | 240 | 1.6 | 9.7 | 0.00 | 0.00 | 0.00 | 43 | 1009.8 |
| 20260504130542 | 15 | 179 | 0.0 | 8.0 | 0.00 | 0.00 | 0.00 | 49 | 1010.1 |
| 20260504110513 | 9 | 12 | 0.0 | 1.6 | 0.00 | 0.00 | 0.00 | 65 | 1010.3 |
| 20260504100503 | 5 | 163 | 0.0 | 0.0 | 0.00 | 0.00 | 0.00 | 75 | 1010.2 |
| 20260504081557 | 7 | 163 | 0.0 | 0.0 | 0.00 | 0.00 | 0.00 | 66 | 1009.7 |
| 20260504081059 | 7 | 163 | 0.0 | 0.0 | 0.00 | 0.00 | 0.00 | 65 | 1009.9 |
| 20260504080554 | 7 | 164 | 0.0 | 0.0 | 0.00 | 0.00 | 0.00 | 66 | 1009.8 |
| 20260504050523 | 4 | 159 | 0.0 | 0.0 | 0.00 | 0.00 | 0.00 | 71 | 1009.7 |
| 20260504050022 | 4 | 159 | 0.0 | 0.0 | 0.00 | 0.00 | 0.00 | 72 | 1009.7 |
| 20260504045521 | 4 | 159 | 0.0 | 0.0 | 0.00 | 0.00 | 0.00 | 73 | 1009.7 |
| 20260504045026 | 4 | 159 | 0.0 | 0.0 | 0.00 | 0.00 | 0.00 | 73 | 1009.8 |
| 20260504044525 | 4 | 159 | 0.0 | 0.0 | 0.00 | 0.00 | 0.00 | 73 | 1009.8 |
| 20260504044018 | 4 | 159 | 0.0 | 0.0 | 0.00 | 0.00 | 0.00 | 73 | 1009.8 |
| 20260504043517 | 4 | 159 | 0.0 | 0.0 | 0.00 | 0.00 | 0.00 | 72 | 1009.8 |
| 20260504043016 | 4 | 159 | 0.0 | 0.0 | 0.00 | 0.00 | 0.00 | 73 | 1009.8 |
| 20260504042515 | 4 | 159 | 0.0 | 0.0 | 0.00 | 0.00 | 0.00 | 74 | 1009.7 |
| 20260504042014 | 4 | 159 | 0.0 | 0.0 | 0.00 | 0.00 | 0.00 | 75 | 1009.6 |
| 20260504041511 | 4 | 159 | 0.0 | 0.0 | 0.00 | 0.00 | 0.00 | 75 | 1009.5 |
| 20260504041011 | 4 | 159 | 0.0 | 0.0 | 0.00 | 0.00 | 0.00 | 75 | 1009.5 |
| 20260504040509 | 4 | 159 | 0.0 | 0.0 | 0.00 | 0.00 | 0.00 | 74 | 1009.5 |
| 20260504040008 | 5 | 159 | 0.0 | 0.0 | 0.00 | 0.00 | 0.00 | 74 | 1009.6 |
| 20260504035507 | 5 | 159 | 0.0 | 0.0 | 0.00 | 0.00 | 0.00 | 73 | 1009.5 |
| 20260504035006 | 5 | 159 | 0.0 | 0.0 | 0.00 | 0.00 | 0.00 | 72 | 1009.4 |
| 20260504034505 | 5 | 159 | 0.0 | 0.0 | 0.00 | 0.00 | 0.00 | 71 | 1009.4 |
| 20260504034004 | 5 | 159 | 0.0 | 0.0 | 0.00 | 0.00 | 0.00 | 71 | 1009.3 |
| 20260504033504 | 5 | 159 | 0.0 | 0.0 | 0.00 | 0.00 | 0.00 | 70 | 1009.3 |
| 20260504033003 | 5 | 159 | 0.0 | 0.0 | 0.00 | 0.00 | 0.00 | 71 | 1009.2 |
| 20260504032503 | 5 | 159 | 0.0 | 0.0 | 0.00 | 0.00 | 0.00 | 71 | 1009.2 |
| 20260504032001 | 5 | 159 | 0.0 | 0.0 | 0.00 | 0.00 | 0.00 | 70 | 1009.2 |